THA5VV VTBS-VOMM

Flight info

Callsign THA5VV
Flight time 1h 35m
Altitude 38000
Route PASTO1F PASTO L301 DWI P762 PPB P761 IDASO V3 AVMOR AVMOR2F
Aircraft A339/H-SADE1E2E3GHIJ3J5M1P2RWXY/LB2D1

Departure

Time 2026-04-30 19:38
Airport Suvarnabhumi Airport (VTBS)

Arrival

Time 2026-04-30 21:13
Airport Chennai International Airport (VOMM)
Time Latitude Longitude Altitude Speed Heading
2026-04-30 19:04 13.69502 100.74691 19 ft 0 kts 105°
2026-04-30 19:26 13.69505 100.74680 21 ft 3 kts 105°
2026-04-30 19:26 13.69515 100.74643 22 ft 2 kts 104°
2026-04-30 19:26 13.69520 100.74624 22 ft 3 kts 120°
2026-04-30 19:27 13.69541 100.74598 24 ft 3 kts 176°
2026-04-30 19:27 13.69555 100.74596 24 ft 0 kts 194°
2026-04-30 19:30 13.69506 100.74583 23 ft 6 kts 194°
2026-04-30 19:30 13.69444 100.74527 19 ft 6 kts 261°
2026-04-30 19:31 13.69466 100.74435 19 ft 8 kts 282°
2026-04-30 19:31 13.69462 100.74381 22 ft 7 kts 238°
2026-04-30 19:31 13.69367 100.74347 19 ft 9 kts 195°
2026-04-30 19:32 13.69304 100.74329 19 ft 10 kts 194°
2026-04-30 19:32 13.69232 100.74311 19 ft 11 kts 193°
2026-04-30 19:32 13.69185 100.74263 19 ft 9 kts 258°
2026-04-30 19:32 13.69179 100.74203 20 ft 8 kts 244°
2026-04-30 19:33 13.69129 100.74183 20 ft 8 kts 195°
2026-04-30 19:33 13.69055 100.74163 19 ft 16 kts 194°
2026-04-30 19:33 13.68911 100.74126 20 ft 25 kts 195°
2026-04-30 19:33 13.68742 100.74083 20 ft 25 kts 192°
2026-04-30 19:34 13.68570 100.74043 20 ft 26 kts 200°
2026-04-30 19:34 13.68399 100.73991 20 ft 26 kts 194°
2026-04-30 19:34 13.68201 100.73939 19 ft 26 kts 194°
2026-04-30 19:35 13.68125 100.73919 19 ft 27 kts 195°
2026-04-30 19:35 13.67943 100.73873 19 ft 27 kts 194°
2026-04-30 19:35 13.67760 100.73824 19 ft 27 kts 194°
2026-04-30 19:35 13.67575 100.73777 19 ft 27 kts 194°
2026-04-30 19:36 13.67396 100.73728 20 ft 25 kts 195°
2026-04-30 19:36 13.67225 100.73683 20 ft 24 kts 194°
2026-04-30 19:36 13.67097 100.73585 19 ft 11 kts 270°
2026-04-30 19:37 13.67133 100.73510 19 ft 12 kts 314°
2026-04-30 19:37 13.67207 100.73491 20 ft 11 kts
2026-04-30 19:37 13.67278 100.73510 21 ft 8 kts 14°
2026-04-30 19:37 13.67280 100.73510 19 ft 0 kts 14°
2026-04-30 19:38 13.67531 100.73574 20 ft 77 kts 14°
2026-04-30 19:38 13.68273 100.73767 28 ft 144 kts 13°
2026-04-30 19:38 13.69362 100.74039 382 ft 168 kts 14°
2026-04-30 19:38 13.70524 100.74359 1029 ft 177 kts 15°
2026-04-30 19:39 13.71760 100.74690 1574 ft 190 kts 16°
2026-04-30 19:39 13.73077 100.75036 2118 ft 203 kts 15°
2026-04-30 19:39 13.74513 100.75410 2472 ft 224 kts 14°
2026-04-30 19:39 13.76108 100.75825 2774 ft 247 kts 14°
2026-04-30 19:40 13.77831 100.76273 3112 ft 265 kts 14°
2026-04-30 19:40 13.79669 100.76754 3511 ft 276 kts 14°
2026-04-30 19:40 13.81534 100.77243 4106 ft 278 kts 15°
2026-04-30 19:40 13.83414 100.77736 4726 ft 280 kts 15°
2026-04-30 19:41 13.84280 100.77964 4986 ft 281 kts 15°
2026-04-30 19:41 13.84948 100.78140 5194 ft 282 kts 15°
2026-04-30 19:41 13.85096 100.78179 5236 ft 282 kts 15°
2026-04-30 19:41 13.85805 100.78366 5470 ft 283 kts 15°
2026-04-30 19:42 13.87716 100.78875 6087 ft 284 kts 15°
2026-04-30 19:42 13.89636 100.79388 6662 ft 287 kts 15°
2026-04-30 19:42 13.91579 100.79905 7230 ft 289 kts 15°
2026-04-30 19:42 13.93539 100.80419 7805 ft 291 kts 14°
2026-04-30 19:43 13.95573 100.80499 8323 ft 295 kts 350°
2026-04-30 19:43 13.98434 100.78958 9231 ft 297 kts 315°
2026-04-30 19:43 14.01117 100.75693 9727 ft 299 kts 308°
2026-04-30 19:44 14.06351 100.69073 10131 ft 312 kts 295°
2026-04-30 19:44 14.07424 100.64547 10440 ft 342 kts 277°
2026-04-30 19:44 14.08122 100.59650 11363 ft 348 kts 277°
2026-04-30 19:44 14.08877 100.54675 12354 ft 353 kts 278°
2026-04-30 19:45 14.09647 100.49652 13345 ft 358 kts 278°
2026-04-30 19:45 14.10423 100.44563 14241 ft 362 kts 278°
2026-04-30 19:45 14.11196 100.39400 15083 ft 367 kts 276°
2026-04-30 19:45 14.11516 100.34125 15930 ft 371 kts 269°
2026-04-30 19:46 14.11174 100.28794 16773 ft 375 kts 262°
2026-04-30 19:46 14.10412 100.23445 17568 ft 380 kts 261°
2026-04-30 19:46 14.09662 100.18036 18360 ft 384 kts 261°
2026-04-30 19:46 14.08902 100.12550 19096 ft 388 kts 261°
2026-04-30 19:47 14.08143 100.07101 19835 ft 391 kts 261°
2026-04-30 19:47 14.07618 100.03344 20324 ft 394 kts 261°
2026-04-30 19:47 14.06575 99.95896 21309 ft 400 kts 261°
2026-04-30 19:47 14.05775 99.90194 22052 ft 404 kts 261°
2026-04-30 19:48 14.04965 99.84433 22802 ft 408 kts 261°
2026-04-30 19:48 14.04146 99.78613 23525 ft 413 kts 261°
2026-04-30 19:48 14.03315 99.72733 24196 ft 416 kts 261°
2026-04-30 19:48 14.02479 99.66823 24856 ft 419 kts 261°
2026-04-30 19:49 14.01636 99.60871 25525 ft 422 kts 262°
2026-04-30 19:49 14.00288 99.48799 26805 ft 427 kts 271°
2026-04-30 19:49 14.00842 99.42686 27421 ft 431 kts 276°
2026-04-30 19:50 14.01433 99.36612 28078 ft 433 kts 276°
2026-04-30 19:50 14.02021 99.30418 28701 ft 436 kts 276°
2026-04-30 19:50 14.02613 99.24187 29327 ft 439 kts 276°
2026-04-30 19:50 14.03210 99.17902 29945 ft 442 kts 276°
2026-04-30 19:51 14.03808 99.11582 30474 ft 445 kts 276°
2026-04-30 19:51 14.04409 99.05210 30998 ft 449 kts 275°
2026-04-30 19:51 14.05014 98.98778 31520 ft 453 kts 275°
2026-04-30 19:51 14.05541 98.92295 32015 ft 457 kts 273°
2026-04-30 19:52 14.05931 98.85735 32466 ft 460 kts 273°
2026-04-30 19:52 14.06343 98.79130 32823 ft 463 kts 273°
2026-04-30 19:52 14.06769 98.72489 33133 ft 466 kts 273°
2026-04-30 19:52 14.07200 98.65814 33379 ft 467 kts 273°
2026-04-30 19:53 14.07629 98.59137 33683 ft 467 kts 273°
2026-04-30 19:53 14.08055 98.52463 33989 ft 466 kts 273°
2026-04-30 19:53 14.08479 98.45811 34279 ft 465 kts 272°
2026-04-30 19:53 14.08899 98.39171 34570 ft 463 kts 272°
2026-04-30 19:54 14.09315 98.32549 34868 ft 463 kts 272°
2026-04-30 19:54 14.09726 98.25948 35177 ft 461 kts 272°
2026-04-30 19:54 14.09107 98.19419 35472 ft 459 kts 256°
2026-04-30 19:54 14.06809 98.13313 35773 ft 458 kts 245°
2026-04-30 19:55 14.04152 98.07354 36122 ft 457 kts 246°
2026-04-30 19:55 14.01527 98.01410 36489 ft 455 kts 246°
2026-04-30 19:55 13.98900 97.95474 36842 ft 454 kts 246°
2026-04-30 19:55 13.97164 97.91558 37047 ft 454 kts 246°
2026-04-30 19:56 13.94546 97.85654 37374 ft 452 kts 246°
2026-04-30 19:56 13.91935 97.79774 37699 ft 451 kts 246°
2026-04-30 19:56 13.89326 97.73900 37930 ft 451 kts 246°
2026-04-30 19:56 13.86728 97.68056 37932 ft 449 kts 246°
2026-04-30 19:57 13.80679 97.54469 37931 ft 449 kts 246°
2026-04-30 19:57 13.76323 97.44698 37934 ft 449 kts 246°
2026-04-30 19:58 13.71113 97.33028 37934 ft 449 kts 246°
2026-04-30 19:58 13.65901 97.21372 37934 ft 448 kts 245°
2026-04-30 19:59 13.60721 97.09803 37931 ft 448 kts 245°
2026-04-30 20:00 13.52904 96.92377 37930 ft 448 kts 245°
2026-04-30 20:00 13.47683 96.80759 37931 ft 448 kts 245°
2026-04-30 20:01 13.39846 96.63353 37928 ft 447 kts 245°
2026-04-30 20:01 13.34617 96.51761 37925 ft 447 kts 245°
2026-04-30 20:02 13.26756 96.34365 37926 ft 448 kts 245°
2026-04-30 20:03 13.18885 96.16984 37924 ft 448 kts 245°
2026-04-30 20:03 13.13623 96.05383 37922 ft 448 kts 245°
2026-04-30 20:04 13.08352 95.93780 37925 ft 448 kts 245°
2026-04-30 20:05 13.00475 95.76471 37925 ft 449 kts 245°
2026-04-30 20:05 12.92543 95.59077 37924 ft 449 kts 245°
2026-04-30 20:06 12.87241 95.47467 37931 ft 449 kts 245°
2026-04-30 20:06 12.82034 95.35851 37924 ft 449 kts 245°
2026-04-30 20:07 12.76816 95.24212 37926 ft 449 kts 245°
2026-04-30 20:08 12.68972 95.06757 37928 ft 450 kts 245°
2026-04-30 20:08 12.63729 94.95110 37925 ft 450 kts 245°
2026-04-30 20:09 12.58474 94.83451 37927 ft 451 kts 245°
2026-04-30 20:09 12.50573 94.65953 37927 ft 452 kts 245°
2026-04-30 20:10 12.42686 94.48522 37923 ft 452 kts 245°
2026-04-30 20:11 12.34777 94.30973 37925 ft 453 kts 245°
2026-04-30 20:11 12.29504 94.19236 37928 ft 454 kts 245°
2026-04-30 20:12 12.21582 94.01638 37927 ft 454 kts 245°
2026-04-30 20:13 12.16363 93.89855 37928 ft 455 kts 246°
2026-04-30 20:13 12.11132 93.78074 37929 ft 455 kts 245°
2026-04-30 20:14 12.05885 93.66276 37929 ft 456 kts 246°
2026-04-30 20:14 12.00631 93.54481 37932 ft 456 kts 246°
2026-04-30 20:15 11.95407 93.42769 37929 ft 456 kts 246°
2026-04-30 20:15 11.90139 93.30971 37934 ft 457 kts 246°
2026-04-30 20:16 11.84863 93.19170 37935 ft 457 kts 246°
2026-04-30 20:16 11.79585 93.07381 37932 ft 457 kts 246°
2026-04-30 20:17 11.74305 92.95603 37940 ft 456 kts 246°
2026-04-30 20:17 11.69013 92.83813 37947 ft 456 kts 246°
2026-04-30 20:18 11.65678 92.71480 37945 ft 456 kts 269°
2026-04-30 20:18 11.67316 92.58645 37946 ft 456 kts 277°
2026-04-30 20:19 11.69193 92.45836 37946 ft 456 kts 277°
2026-04-30 20:19 11.71067 92.33060 37942 ft 455 kts 277°
2026-04-30 20:20 11.72931 92.20307 37937 ft 454 kts 277°
2026-04-30 20:20 11.74785 92.07589 37935 ft 453 kts 277°
2026-04-30 20:21 11.76628 91.94901 37931 ft 452 kts 277°
2026-04-30 20:21 11.78465 91.82215 37932 ft 451 kts 277°
2026-04-30 20:22 11.80296 91.69539 37929 ft 451 kts 277°
2026-04-30 20:22 11.82117 91.56885 37929 ft 451 kts 277°
2026-04-30 20:23 11.83924 91.44289 37928 ft 451 kts 277°
2026-04-30 20:23 11.85736 91.31618 37932 ft 451 kts 277°
2026-04-30 20:24 11.87088 91.18892 37928 ft 451 kts 274°
2026-04-30 20:24 11.88288 91.06143 37931 ft 451 kts 275°
2026-04-30 20:25 11.90128 90.87017 37929 ft 451 kts 275°
2026-04-30 20:26 11.91949 90.67936 37930 ft 452 kts 275°
2026-04-30 20:26 11.93768 90.48750 37930 ft 453 kts 275°
2026-04-30 20:27 11.96174 90.23144 37931 ft 453 kts 275°
2026-04-30 20:28 11.98557 89.97533 37932 ft 452 kts 275°
2026-04-30 20:30 12.01487 89.65688 37931 ft 451 kts 275°
2026-04-30 20:31 12.04950 89.27523 37929 ft 449 kts 275°
2026-04-30 20:32 12.07787 88.95826 37931 ft 448 kts 275°
2026-04-30 20:33 12.09470 88.76830 37930 ft 447 kts 275°
2026-04-30 20:34 12.11446 88.57886 37927 ft 447 kts 277°
2026-04-30 20:35 12.13695 88.38955 37927 ft 447 kts 277°
2026-04-30 20:35 12.15908 88.20017 37927 ft 448 kts 277°
2026-04-30 20:36 12.17378 88.07374 37928 ft 448 kts 277°
2026-04-30 20:37 12.19575 87.88382 37934 ft 449 kts 277°
2026-04-30 20:37 12.21036 87.75691 37931 ft 450 kts 277°
2026-04-30 20:38 12.22494 87.62973 37928 ft 450 kts 277°
2026-04-30 20:38 12.23946 87.50250 37933 ft 451 kts 277°
2026-04-30 20:39 12.26106 87.31234 37932 ft 451 kts 277°
2026-04-30 20:40 12.28266 87.12087 37935 ft 452 kts 277°
2026-04-30 20:40 12.29699 86.99322 37938 ft 452 kts 277°
2026-04-30 20:41 12.31838 86.80168 37941 ft 452 kts 277°
2026-04-30 20:41 12.33259 86.67373 37936 ft 453 kts 277°
2026-04-30 20:42 12.34664 86.54666 37943 ft 453 kts 277°
2026-04-30 20:43 12.36781 86.35428 37937 ft 454 kts 277°
2026-04-30 20:43 12.38186 86.22582 37931 ft 455 kts 277°
2026-04-30 20:44 12.40286 86.03278 37933 ft 456 kts 277°
2026-04-30 20:45 12.43071 85.77476 37935 ft 457 kts 277°
2026-04-30 20:45 12.44457 85.64552 37932 ft 457 kts 277°
2026-04-30 20:46 12.46973 85.40934 37927 ft 455 kts 277°
2026-04-30 20:47 12.49012 85.21644 37925 ft 454 kts 277°
2026-04-30 20:48 12.51037 85.02357 37917 ft 455 kts 277°
2026-04-30 20:48 12.52381 84.89478 37915 ft 455 kts 277°
2026-04-30 20:49 12.53723 84.76565 37911 ft 457 kts 277°
2026-04-30 20:50 12.55731 84.57123 37917 ft 459 kts 278°
2026-04-30 20:50 12.57066 84.44115 37920 ft 460 kts 278°
2026-04-30 20:51 12.58391 84.31148 37917 ft 462 kts 278°
2026-04-30 20:51 12.60385 84.11518 37923 ft 463 kts 278°
2026-04-30 20:52 12.61711 83.98385 37920 ft 464 kts 278°
2026-04-30 20:53 12.63687 83.78690 37920 ft 464 kts 278°
2026-04-30 20:53 12.65000 83.65539 37921 ft 464 kts 278°
2026-04-30 20:54 12.65336 83.45718 37914 ft 467 kts 269°
2026-04-30 20:55 12.64072 83.25851 37917 ft 465 kts 269°
2026-04-30 20:55 12.63217 83.12635 37918 ft 465 kts 269°
2026-04-30 20:56 12.61925 82.92861 37912 ft 464 kts 268°
2026-04-30 20:57 12.60621 82.73127 37916 ft 463 kts 268°
2026-04-30 20:57 12.59745 82.59993 37908 ft 463 kts 268°
2026-04-30 20:58 12.58419 82.40280 37912 ft 463 kts 268°
2026-04-30 20:58 12.57533 82.27215 37910 ft 463 kts 268°
2026-04-30 20:59 12.56227 82.08148 37911 ft 464 kts 268°
2026-04-30 21:00 12.56978 81.95139 36520 ft 460 kts 284°
2026-04-30 21:00 12.59807 81.81990 31446 ft 482 kts 283°
2026-04-30 21:01 12.62613 81.68666 27407 ft 466 kts 282°
2026-04-30 21:01 12.63958 81.62262 26076 ft 455 kts 282°
2026-04-30 21:01 12.66547 81.49925 23642 ft 434 kts 281°
2026-04-30 21:02 12.67796 81.43951 22424 ft 421 kts 281°
2026-04-30 21:02 12.69000 81.38170 21257 ft 408 kts 282°
2026-04-30 21:02 12.70171 81.32548 20101 ft 397 kts 282°
2026-04-30 21:02 12.71308 81.27086 18895 ft 390 kts 283°
2026-04-30 21:03 12.72426 81.21705 17790 ft 380 kts 284°
2026-04-30 21:03 12.73517 81.16485 16687 ft 369 kts 284°
2026-04-30 21:03 12.74577 81.11395 15564 ft 370 kts 283°
2026-04-30 21:03 12.75682 81.06080 14536 ft 387 kts 283°
2026-04-30 21:04 12.76806 81.00671 13158 ft 385 kts 283°
2026-04-30 21:04 12.77884 80.95463 12120 ft 365 kts 283°
2026-04-30 21:04 12.79836 80.86035 10430 ft 313 kts 283°
2026-04-30 21:05 12.80878 80.81862 9838 ft 306 kts 293°
2026-04-30 21:05 12.82793 80.77919 9549 ft 304 kts 298°
2026-04-30 21:05 12.84644 80.74094 9161 ft 304 kts 297°
2026-04-30 21:05 12.86479 80.70263 8389 ft 293 kts 296°
2026-04-30 21:06 12.88221 80.66622 7630 ft 276 kts 296°
2026-04-30 21:06 12.89868 80.63182 6913 ft 270 kts 295°
2026-04-30 21:06 12.91626 80.59503 6662 ft 290 kts 295°
2026-04-30 21:06 12.93390 80.55814 5837 ft 286 kts 295°
2026-04-30 21:07 12.95136 80.52199 4680 ft 281 kts 293°
2026-04-30 21:07 12.96807 80.48686 4192 ft 273 kts 292°
2026-04-30 21:07 12.98401 80.45358 4002 ft 241 kts 293°
2026-04-30 21:07 13.00631 80.42934 3501 ft 237 kts 319°
2026-04-30 21:08 13.03356 80.40810 2751 ft 246 kts 317°
2026-04-30 21:08 13.05649 80.38807 2399 ft 236 kts 298°
2026-04-30 21:08 13.06159 80.37306 2288 ft 217 kts 268°
2026-04-30 21:08 13.06017 80.35799 2020 ft 209 kts 251°
2026-04-30 21:09 13.05582 80.34417 1920 ft 197 kts 246°
2026-04-30 21:09 13.05100 80.33150 1808 ft 186 kts 244°
2026-04-30 21:09 13.04653 80.31949 1788 ft 173 kts 245°
2026-04-30 21:09 13.04226 80.30810 1807 ft 174 kts 244°
2026-04-30 21:10 13.03792 80.29654 1791 ft 170 kts 244°
2026-04-30 21:10 13.03399 80.28607 1796 ft 171 kts 244°
2026-04-30 21:10 13.03261 80.28247 1797 ft 173 kts 245°
2026-04-30 21:11 13.02840 80.27109 1773 ft 166 kts 246°
2026-04-30 21:11 13.02436 80.26030 1570 ft 157 kts 246°
2026-04-30 21:11 13.02061 80.25017 1358 ft 147 kts 244°
2026-04-30 21:11 13.01678 80.24016 1170 ft 153 kts 244°
2026-04-30 21:12 13.01320 80.23052 972 ft 138 kts 246°
2026-04-30 21:12 13.00972 80.22120 838 ft 147 kts 246°
2026-04-30 21:12 13.00621 80.21182 635 ft 136 kts 248°
2026-04-30 21:12 13.00279 80.20268 379 ft 139 kts 244°
2026-04-30 21:13 12.99936 80.19334 282 ft 141 kts 248°
2026-04-30 21:13 12.99594 80.18432 99 ft 133 kts 246°
2026-04-30 21:13 12.99280 80.17606 63 ft 94 kts 249°
2026-04-30 21:13 12.99139 80.17223 58 ft 28 kts 249°
2026-04-30 21:14 12.99065 80.17027 56 ft 29 kts 250°
2026-04-30 21:14 12.98996 80.16841 54 ft 27 kts 249°
2026-04-30 21:14 12.98930 80.16666 56 ft 26 kts 250°
2026-04-30 21:14 12.98865 80.16497 58 ft 25 kts 245°
2026-04-30 21:15 12.98757 80.16363 55 ft 24 kts 219°
2026-04-30 21:15 12.98639 80.16321 57 ft 10 kts 146°
2026-04-30 21:15 12.98624 80.16383 62 ft 9 kts 91°
2026-04-30 21:15 12.98639 80.16422 54 ft 0 kts 69°
2026-04-30 21:16 12.98640 80.16427 55 ft 4 kts 69°
2026-04-30 21:17 12.98658 80.16473 60 ft 10 kts 69°
2026-04-30 21:17 12.98696 80.16576 55 ft 18 kts 69°
2026-04-30 21:17 12.98735 80.16684 60 ft 9 kts 77°
2026-04-30 21:17 12.98702 80.16735 63 ft 9 kts 145°
2026-04-30 21:18 12.98641 80.16760 55 ft 10 kts 159°
2026-04-30 21:18 12.98588 80.16742 61 ft 8 kts 226°
2026-04-30 21:18 12.98563 80.16683 58 ft 12 kts 249°
2026-04-30 21:18 12.98514 80.16549 57 ft 23 kts 249°
2026-04-30 21:19 12.98455 80.16394 54 ft 23 kts 248°
2026-04-30 21:19 12.98398 80.16239 56 ft 23 kts 249°
2026-04-30 21:19 12.98348 80.16165 57 ft 7 kts 200°
2026-04-30 21:19 12.98306 80.16175 55 ft 7 kts 162°
2026-04-30 21:20 12.98288 80.16183 58 ft 0 kts 159°
2026-04-30 21:26 12.98291 80.16180 61 ft 0 kts 158°